owner,sensor,date,latitude,longitude,vertical_datum,sea_water_temperature,qcFlag
BP,ioos:station:wmo:42369:2,2023-01-25T20:19:00Z,27.2023,-90.2885,444.2,9.4,11113222
BP,ioos:station:wmo:42369:2,2023-01-25T20:39:00Z,27.2023,-90.2885,443.7,9.3,11113222
BP,ioos:station:wmo:42369:2,2023-01-25T20:59:00Z,27.2023,-90.2885,443.5,9.4,11113222
BP,ioos:station:wmo:42369:2,2023-01-25T21:19:00Z,27.2023,-90.2885,444.2,9.4,11113222
BP,ioos:station:wmo:42369:2,2023-01-25T21:39:00Z,27.2023,-90.2885,444.3,9.3,11113222
BP,ioos:station:wmo:42369:2,2023-01-25T21:59:00Z,27.2023,-90.2885,443.7,9.3,11113222
BP,ioos:station:wmo:42369:2,2023-01-25T22:19:00Z,27.2023,-90.2885,444.2,9.4,11113222
BP,ioos:station:wmo:42369:2,2023-01-25T22:39:00Z,27.2023,-90.2885,443.8,9.3,11113222
BP,ioos:station:wmo:42369:2,2023-01-25T22:59:00Z,27.2023,-90.2885,443.9,9.3,11113222
BP,ioos:station:wmo:42369:2,2023-01-25T23:19:00Z,27.2023,-90.2885,444.3,9.3,11113222
BP,ioos:station:wmo:42369:2,2023-01-25T23:39:00Z,27.2023,-90.2885,443.4,9.3,11113222
BP,ioos:station:wmo:42369:2,2023-01-25T23:59:00Z,27.2023,-90.2885,443.4,9.3,11113222
BP,ioos:station:wmo:42369:2,2023-01-26T00:19:00Z,27.2023,-90.2885,443.0,9.3,11113222
BP,ioos:station:wmo:42369:2,2023-01-26T00:39:00Z,27.2023,-90.2885,444.0,9.3,11113222
BP,ioos:station:wmo:42369:2,2023-01-26T00:59:00Z,27.2023,-90.2885,443.8,9.3,11113222
BP,ioos:station:wmo:42369:2,2023-01-26T01:19:00Z,27.2023,-90.2885,443.0,9.4,11113222
BP,ioos:station:wmo:42369:2,2023-01-26T01:39:00Z,27.2023,-90.2885,443.8,9.3,11113222
BP,ioos:station:wmo:42369:2,2023-01-26T01:59:00Z,27.2023,-90.2885,443.5,9.4,11113222
BP,ioos:station:wmo:42369:2,2023-01-26T02:19:00Z,27.2023,-90.2885,443.8,9.4,11113222
BP,ioos:station:wmo:42369:2,2023-01-26T02:39:00Z,27.2023,-90.2885,443.2,9.4,11113222
BP,ioos:station:wmo:42369:2,2023-01-26T02:59:00Z,27.2023,-90.2885,443.7,9.4,11113222
BP,ioos:station:wmo:42369:2,2023-01-26T03:19:00Z,27.2023,-90.2885,443.8,9.4,11113222
BP,ioos:station:wmo:42369:2,2023-01-26T03:39:00Z,27.2023,-90.2885,444.3,9.4,11113222
BP,ioos:station:wmo:42369:2,2023-01-26T03:59:00Z,27.2023,-90.2885,443.5,9.4,11113222
BP,ioos:station:wmo:42369:2,2023-01-26T04:19:00Z,27.2023,-90.2885,444.3,9.4,11113222
BP,ioos:station:wmo:42369:2,2023-01-26T04:39:00Z,27.2023,-90.2885,444.4,9.4,11113222
BP,ioos:station:wmo:42369:2,2023-01-26T04:59:00Z,27.2023,-90.2885,444.5,9.4,11113222
BP,ioos:station:wmo:42369:2,2023-01-26T05:19:00Z,27.2023,-90.2885,444.9,9.4,11113222
BP,ioos:station:wmo:42369:2,2023-01-26T05:39:00Z,27.2023,-90.2885,444.8,9.3,11113222
BP,ioos:station:wmo:42369:2,2023-01-26T05:59:00Z,27.2023,-90.2885,445.0,9.3,11113222
BP,ioos:station:wmo:42369:2,2023-01-26T06:19:00Z,27.2023,-90.2885,444.3,9.3,11113222
BP,ioos:station:wmo:42369:2,2023-01-26T06:39:00Z,27.2023,-90.2885,445.0,9.3,11113222
BP,ioos:station:wmo:42369:2,2023-01-26T06:59:00Z,27.2023,-90.2885,444.9,9.3,11113222
BP,ioos:station:wmo:42369:2,2023-01-26T07:19:00Z,27.2023,-90.2885,445.0,9.4,11113222
BP,ioos:station:wmo:42369:2,2023-01-26T07:39:00Z,27.2023,-90.2885,445.2,9.4,11113222
BP,ioos:station:wmo:42369:2,2023-01-26T07:59:00Z,27.2023,-90.2885,445.1,9.3,11113222
BP,ioos:station:wmo:42369:2,2023-01-26T08:19:00Z,27.2023,-90.2885,445.1,9.4,11113222
BP,ioos:station:wmo:42369:2,2023-01-26T08:39:00Z,27.2001,-90.2847,445.1,9.4,11113222
BP,ioos:station:wmo:42369:2,2023-01-26T08:59:00Z,27.2001,-90.2849,445.8,9.4,11113222
BP,ioos:station:wmo:42369:2,2023-01-26T09:19:00Z,27.2001,-90.2851,445.8,9.5,11113222
BP,ioos:station:wmo:42369:2,2023-01-26T09:39:00Z,27.2002,-90.2852,445.3,9.5,11113222
BP,ioos:station:wmo:42369:2,2023-01-26T09:59:00Z,27.2002,-90.2853,444.9,9.5,11113222
BP,ioos:station:wmo:42369:2,2023-01-26T10:19:00Z,27.2002,-90.2854,445.2,9.6,11113222
BP,ioos:station:wmo:42369:2,2023-01-26T10:39:00Z,27.2002,-90.2855,445.7,9.6,11113222
BP,ioos:station:wmo:42369:2,2023-01-26T10:59:00Z,27.2002,-90.2854,445.3,9.6,11113222
BP,ioos:station:wmo:42369:2,2023-01-26T11:19:00Z,27.2001,-90.2854,445.6,9.6,11113222
BP,ioos:station:wmo:42369:2,2023-01-26T11:39:00Z,27.2001,-90.2853,445.6,9.5,11113222
BP,ioos:station:wmo:42369:2,2023-01-26T11:59:00Z,27.2002,-90.2853,444.8,9.5,11113222
BP,ioos:station:wmo:42369:2,2023-01-26T12:19:00Z,27.2002,-90.2854,444.3,9.5,11113222
BP,ioos:station:wmo:42369:2,2023-01-26T12:39:00Z,27.2002,-90.2857,444.7,9.6,11113222
BP,ioos:station:wmo:42369:2,2023-01-26T12:59:00Z,27.2003,-90.2858,445.1,9.6,11113222
BP,ioos:station:wmo:42369:2,2023-01-26T13:19:00Z,27.2002,-90.2858,445.6,9.5,11113222
BP,ioos:station:wmo:42369:2,2023-01-26T13:39:00Z,27.2003,-90.2859,445.0,9.5,11113222
BP,ioos:station:wmo:42369:2,2023-01-26T13:59:00Z,27.2004,-90.2862,445.6,9.6,11113222
BP,ioos:station:wmo:42369:2,2023-01-26T14:19:00Z,27.2004,-90.2863,445.7,9.6,11113222
BP,ioos:station:wmo:42369:2,2023-01-26T14:39:00Z,27.2005,-90.2865,445.2,9.6,11113222
BP,ioos:station:wmo:42369:2,2023-01-26T14:59:00Z,27.2005,-90.2865,445.3,9.6,11113222
BP,ioos:station:wmo:42369:2,2023-01-26T15:19:00Z,27.2006,-90.2866,444.9,9.5,11113222
BP,ioos:station:wmo:42369:2,2023-01-26T15:39:00Z,27.2008,-90.2869,445.0,9.5,11113222
BP,ioos:station:wmo:42369:2,2023-01-26T15:59:00Z,27.2010,-90.2873,444.9,9.5,11113222
BP,ioos:station:wmo:42369:2,2023-01-26T16:19:00Z,27.2012,-90.2877,445.2,9.4,11113222
BP,ioos:station:wmo:42369:2,2023-01-26T16:39:00Z,27.2013,-90.2878,444.7,9.4,11113222
BP,ioos:station:wmo:42369:2,2023-01-26T19:19:00Z,27.2025,-90.2891,444.4,9.4,11113222
BP,ioos:station:wmo:42369:2,2023-01-26T19:39:00Z,27.2027,-90.2892,444.6,9.3,11113222
BP,ioos:station:wmo:42369:2,2023-01-26T19:59:00Z,27.2028,-90.2893,444.2,9.4,11113222
BP,ioos:station:wmo:42369:2,2023-01-26T20:19:00Z,27.2029,-90.2894,444.3,9.4,11113222
BP,ioos:station:wmo:42369:2,2023-01-26T20:39:00Z,27.2030,-90.2895,444.5,9.4,11113222
BP,ioos:station:wmo:42369:2,2023-01-26T20:59:00Z,27.2031,-90.2896,444.5,9.4,11113222
BP,ioos:station:wmo:42369:2,2023-01-26T21:19:00Z,27.2032,-90.2897,444.4,9.4,11113222
BP,ioos:station:wmo:42369:2,2023-01-26T21:39:00Z,27.2032,-90.2897,444.2,9.4,11113222
BP,ioos:station:wmo:42369:2,2023-01-26T21:59:00Z,27.2032,-90.2897,444.4,9.4,11113222
BP,ioos:station:wmo:42369:2,2023-01-26T22:19:00Z,27.2034,-90.2898,444.3,9.4,11113222
BP,ioos:station:wmo:42369:2,2023-01-26T22:39:00Z,27.2035,-90.2899,443.9,9.4,11113222
BP,ioos:station:wmo:42369:2,2023-01-26T22:59:00Z,27.2035,-90.2899,444.9,9.4,11113222
BP,ioos:station:wmo:42369:2,2023-01-26T23:19:00Z,27.2036,-90.2899,443.9,9.4,11113222
BP,ioos:station:wmo:42369:2,2023-01-26T23:39:00Z,27.2036,-90.2898,443.7,9.4,11113222
BP,ioos:station:wmo:42369:2,2023-01-26T23:59:00Z,27.2036,-90.2898,443.7,9.4,11113222
BP,ioos:station:wmo:42369:2,2023-01-27T00:39:00Z,27.2037,-90.2897,443.5,9.3,11113222
BP,ioos:station:wmo:42369:2,2023-01-27T00:59:00Z,27.2036,-90.2896,442.8,9.4,11113222
BP,ioos:station:wmo:42369:2,2023-01-27T01:19:00Z,27.2035,-90.2895,442.7,9.4,11113222
BP,ioos:station:wmo:42369:2,2023-01-27T01:39:00Z,27.2032,-90.2892,443.6,9.3,11113222
BP,ioos:station:wmo:42369:2,2023-01-27T01:59:00Z,27.2032,-90.2892,442.8,9.3,11113222
BP,ioos:station:wmo:42369:2,2023-01-27T02:19:00Z,27.2030,-90.2890,443.3,9.3,11113222
BP,ioos:station:wmo:42369:2,2023-01-27T02:39:00Z,27.2027,-90.2887,443.5,9.4,11113222
BP,ioos:station:wmo:42369:2,2023-01-27T02:59:00Z,27.2026,-90.2886,443.1,9.5,11113222
BP,ioos:station:wmo:42369:2,2023-01-27T03:19:00Z,27.2024,-90.2884,443.2,9.5,11113222
BP,ioos:station:wmo:42369:2,2023-01-27T03:39:00Z,27.2024,-90.2884,443.6,9.4,11113222
BP,ioos:station:wmo:42369:2,2023-01-27T03:59:00Z,27.2019,-90.2876,443.1,9.4,11113222
BP,ioos:station:wmo:42369:2,2023-01-27T04:19:00Z,27.2017,-90.2872,442.7,9.5,11113222
BP,ioos:station:wmo:42369:2,2023-01-27T04:39:00Z,27.2017,-90.2870,443.0,9.5,11113222
BP,ioos:station:wmo:42369:2,2023-01-27T04:59:00Z,27.2015,-90.2868,442.7,9.5,11113222
BP,ioos:station:wmo:42369:2,2023-01-27T05:19:00Z,27.2014,-90.2867,442.8,9.5,11113222
BP,ioos:station:wmo:42369:2,2023-01-27T05:39:00Z,27.2013,-90.2866,442.8,9.4,11113222
BP,ioos:station:wmo:42369:2,2023-01-27T05:59:00Z,27.2013,-90.2865,443.0,9.4,11113222
BP,ioos:station:wmo:42369:2,2023-01-27T06:19:00Z,27.2013,-90.2864,442.9,9.4,11113222
BP,ioos:station:wmo:42369:2,2023-01-27T06:39:00Z,27.2012,-90.2863,443.1,9.5,11113222
BP,ioos:station:wmo:42369:2,2023-01-27T06:59:00Z,27.2012,-90.2863,443.0,9.5,11113222
BP,ioos:station:wmo:42369:2,2023-01-27T07:19:00Z,27.2011,-90.2862,443.1,9.5,11113222
BP,ioos:station:wmo:42369:2,2023-01-27T07:39:00Z,27.2011,-90.2863,442.9,9.4,11113222
BP,ioos:station:wmo:42369:2,2023-01-27T07:59:00Z,27.2011,-90.2863,443.6,9.4,11113222
BP,ioos:station:wmo:42369:2,2023-01-27T08:19:00Z,27.2011,-90.2863,443.5,9.4,11113222
BP,ioos:station:wmo:42369:2,2023-01-27T08:39:00Z,27.2011,-90.2863,443.3,9.5,11113222
BP,ioos:station:wmo:42369:2,2023-01-27T08:59:00Z,27.2011,-90.2864,443.3,9.5,11113222
BP,ioos:station:wmo:42369:2,2023-01-27T09:19:00Z,27.2012,-90.2866,444.2,9.5,11113222
BP,ioos:station:wmo:42369:2,2023-01-27T09:39:00Z,27.2012,-90.2868,443.4,9.5,11113222
BP,ioos:station:wmo:42369:2,2023-01-27T09:59:00Z,27.2013,-90.2872,443.7,9.6,11113222
BP,ioos:station:wmo:42369:2,2023-01-27T10:19:00Z,27.2013,-90.2873,444.6,9.6,11113222
BP,ioos:station:wmo:42369:2,2023-01-27T10:39:00Z,27.2014,-90.2874,443.5,9.6,11113222
BP,ioos:station:wmo:42369:2,2023-01-27T10:59:00Z,27.2014,-90.2876,444.2,9.6,11113222
BP,ioos:station:wmo:42369:2,2023-01-27T11:39:00Z,27.2015,-90.2880,444.2,9.7,11113222
BP,ioos:station:wmo:42369:2,2023-01-27T11:59:00Z,27.2016,-90.2881,444.4,9.6,11113222
BP,ioos:station:wmo:42369:2,2023-01-27T12:19:00Z,27.2017,-90.2881,444.4,9.6,11113222
BP,ioos:station:wmo:42369:2,2023-01-27T12:39:00Z,27.2018,-90.2882,444.4,9.6,11113222
BP,ioos:station:wmo:42369:2,2023-01-27T12:59:00Z,27.2018,-90.2883,444.5,9.5,11113222
BP,ioos:station:wmo:42369:2,2023-01-27T13:19:00Z,27.2019,-90.2884,444.2,9.5,11113222
BP,ioos:station:wmo:42369:2,2023-01-27T13:39:00Z,27.2019,-90.2885,444.7,9.5,11113222
BP,ioos:station:wmo:42369:2,2023-01-27T14:19:00Z,27.2021,-90.2886,443.9,9.5,11113222
BP,ioos:station:wmo:42369:2,2023-01-27T14:39:00Z,27.2020,-90.2887,443.9,9.4,11113222
BP,ioos:station:wmo:42369:2,2023-01-27T15:19:00Z,27.2022,-90.2888,443.9,9.4,11113222
BP,ioos:station:wmo:42369:2,2023-01-27T15:39:00Z,27.2022,-90.2888,444.4,9.3,11113222
BP,ioos:station:wmo:42369:2,2023-01-27T15:59:00Z,27.2022,-90.2888,444.5,9.3,11113222
BP,ioos:station:wmo:42369:2,2023-01-27T16:19:00Z,27.2023,-90.2888,444.8,9.5,11113222
BP,ioos:station:wmo:42369:2,2023-01-27T16:39:00Z,27.2023,-90.2889,444.5,9.5,11113222
BP,ioos:station:wmo:42369:2,2023-01-27T16:59:00Z,27.2024,-90.2890,444.6,9.5,11113222
BP,ioos:station:wmo:42369:2,2023-01-27T17:19:00Z,27.2024,-90.2890,445.0,9.6,11113222
BP,ioos:station:wmo:42369:2,2023-01-27T17:39:00Z,27.2025,-90.2892,444.1,9.5,11113222
BP,ioos:station:wmo:42369:2,2023-01-27T17:59:00Z,27.2027,-90.2893,444.9,9.6,11113222
BP,ioos:station:wmo:42369:2,2023-01-27T18:19:00Z,27.2028,-90.2894,444.8,9.6,11113222
BP,ioos:station:wmo:42369:2,2023-01-27T18:39:00Z,27.2028,-90.2895,443.9,9.6,11113222
BP,ioos:station:wmo:42369:2,2023-01-27T18:59:00Z,27.2028,-90.2895,445.2,9.6,11113222
BP,ioos:station:wmo:42369:2,2023-01-27T19:19:00Z,27.2031,-90.2897,445.4,9.6,11113222
BP,ioos:station:wmo:42369:2,2023-01-27T19:39:00Z,27.2034,-90.2899,444.6,9.6,11113222
BP,ioos:station:wmo:42369:2,2023-01-27T20:19:00Z,27.2035,-90.2900,445.0,9.5,11113222
BP,ioos:station:wmo:42369:2,2023-01-27T20:39:00Z,27.2037,-90.2901,444.6,9.5,11113222
BP,ioos:station:wmo:42369:2,2023-01-27T20:59:00Z,27.2037,-90.2901,444.9,9.6,11113222
BP,ioos:station:wmo:42369:2,2023-01-27T21:19:00Z,27.2038,-90.2901,444.0,9.5,11113222
BP,ioos:station:wmo:42369:2,2023-01-27T21:39:00Z,27.2039,-90.2901,444.0,9.5,11113222
BP,ioos:station:wmo:42369:2,2023-01-27T21:59:00Z,27.2041,-90.2902,444.1,9.7,11113222
BP,ioos:station:wmo:42369:2,2023-01-27T22:19:00Z,27.2041,-90.2901,443.5,9.7,11113222
BP,ioos:station:wmo:42369:2,2023-01-27T22:39:00Z,27.2043,-90.2902,443.9,9.7,11113222
BP,ioos:station:wmo:42369:2,2023-01-27T22:59:00Z,27.2049,-90.2904,444.3,9.7,11113222
BP,ioos:station:wmo:42369:2,2023-01-27T23:19:00Z,27.2049,-90.2904,443.8,9.7,11113222
BP,ioos:station:wmo:42369:2,2023-01-27T23:39:00Z,27.2048,-90.2904,444.2,9.6,11113222
BP,ioos:station:wmo:42369:2,2023-01-27T23:59:00Z,27.2047,-90.2904,444.8,9.6,11113222
BP,ioos:station:wmo:42369:2,2023-01-28T00:39:00Z,27.2043,-90.2901,443.8,9.6,11113222
BP,ioos:station:wmo:42369:2,2023-01-28T00:59:00Z,27.2049,-90.2905,444.1,9.5,11113222
BP,ioos:station:wmo:42369:2,2023-01-28T01:39:00Z,27.2043,-90.2901,443.7,9.4,11113222
BP,ioos:station:wmo:42369:2,2023-01-28T02:19:00Z,27.2040,-90.2900,443.8,9.4,11113222
BP,ioos:station:wmo:42369:2,2023-01-28T02:39:00Z,27.2037,-90.2897,443.4,9.4,11113222
BP,ioos:station:wmo:42369:2,2023-01-28T02:59:00Z,27.2034,-90.2894,443.0,9.4,11113222
BP,ioos:station:wmo:42369:2,2023-01-28T03:19:00Z,27.2031,-90.2892,443.4,9.4,11113222
BP,ioos:station:wmo:42369:2,2023-01-28T03:39:00Z,27.2029,-90.2891,443.2,9.4,11113222
BP,ioos:station:wmo:42369:2,2023-01-28T03:59:00Z,27.2026,-90.2888,443.5,9.4,11113222
BP,ioos:station:wmo:42369:2,2023-01-28T04:19:00Z,27.2026,-90.2888,443.6,9.4,11113222
BP,ioos:station:wmo:42369:2,2023-01-28T04:39:00Z,27.2025,-90.2886,444.0,9.4,11113222
BP,ioos:station:wmo:42369:2,2023-01-28T04:59:00Z,27.2024,-90.2886,443.2,9.4,11113222
BP,ioos:station:wmo:42369:2,2023-01-28T05:19:00Z,27.2024,-90.2885,443.5,9.3,11113222
BP,ioos:station:wmo:42369:2,2023-01-28T05:39:00Z,27.2023,-90.2884,443.4,9.5,11113222
BP,ioos:station:wmo:42369:2,2023-01-28T05:59:00Z,27.2022,-90.2883,443.4,9.4,11113222
BP,ioos:station:wmo:42369:2,2023-01-28T06:39:00Z,27.2022,-90.2883,443.6,9.4,11113222
BP,ioos:station:wmo:42369:2,2023-01-28T06:59:00Z,27.2022,-90.2883,443.3,9.4,11113222
BP,ioos:station:wmo:42369:2,2023-01-28T07:19:00Z,27.2022,-90.2884,443.5,9.4,11113222
BP,ioos:station:wmo:42369:2,2023-01-28T07:39:00Z,27.2023,-90.2885,443.0,9.4,11113222
BP,ioos:station:wmo:42369:2,2023-01-28T07:59:00Z,27.2023,-90.2885,443.2,9.4,11113222
BP,ioos:station:wmo:42369:2,2023-01-28T08:19:00Z,27.2025,-90.2889,444.2,9.4,11113222
BP,ioos:station:wmo:42369:2,2023-01-28T08:39:00Z,27.2027,-90.2891,443.5,9.3,11113222
BP,ioos:station:wmo:42369:2,2023-01-28T08:59:00Z,27.2030,-90.2894,443.7,9.4,11113222
BP,ioos:station:wmo:42369:2,2023-01-28T09:19:00Z,27.2035,-90.2898,444.4,9.5,11113222
BP,ioos:station:wmo:42369:2,2023-01-28T09:39:00Z,27.2039,-90.2901,443.9,9.5,11113222
BP,ioos:station:wmo:42369:2,2023-01-28T10:19:00Z,27.2046,-90.2904,444.1,9.5,11113222
BP,ioos:station:wmo:42369:2,2023-01-28T10:39:00Z,27.2049,-90.2906,444.1,9.5,11113222
BP,ioos:station:wmo:42369:2,2023-01-28T10:59:00Z,27.2051,-90.2907,444.4,9.5,11113222
BP,ioos:station:wmo:42369:2,2023-01-28T11:19:00Z,27.2053,-90.2907,444.5,9.5,11113222
BP,ioos:station:wmo:42369:2,2023-01-28T11:39:00Z,27.2054,-90.2908,444.8,9.6,11113222
BP,ioos:station:wmo:42369:2,2023-01-28T12:19:00Z,27.2059,-90.2909,444.7,9.6,11113222
BP,ioos:station:wmo:42369:2,2023-01-28T12:39:00Z,27.2061,-90.2909,444.1,9.6,11113222
BP,ioos:station:wmo:42369:2,2023-01-28T12:59:00Z,27.2061,-90.2909,445.1,9.6,11113222
BP,ioos:station:wmo:42369:2,2023-01-28T13:19:00Z,27.2063,-90.2910,444.9,9.7,11113222
BP,ioos:station:wmo:42369:2,2023-01-28T13:39:00Z,27.2065,-90.2911,444.5,9.7,11113222
BP,ioos:station:wmo:42369:2,2023-01-28T17:39:00Z,27.2071,-90.2911,444.2,9.5,11113222
BP,ioos:station:wmo:42369:2,2023-01-28T17:59:00Z,27.2071,-90.2911,445.4,9.5,11113222
BP,ioos:station:wmo:42369:2,2023-01-28T19:19:00Z,27.2073,-90.2912,445.1,9.4,11113222
BP,ioos:station:wmo:42369:2,2023-01-28T20:19:00Z,27.2086,-90.2911,445.0,9.4,11113222
BP,ioos:station:wmo:42369:2,2023-01-28T20:39:00Z,27.2087,-90.2910,445.1,9.4,11113222
BP,ioos:station:wmo:42369:2,2023-01-28T20:59:00Z,27.2088,-90.2911,445.2,9.5,11113222
BP,ioos:station:wmo:42369:2,2023-01-28T21:19:00Z,27.2089,-90.2910,445.3,9.5,11113222
BP,ioos:station:wmo:42369:2,2023-01-28T21:39:00Z,27.2089,-90.2910,445.3,9.4,11113222
BP,ioos:station:wmo:42369:2,2023-01-28T22:19:00Z,27.2088,-90.2911,445.2,9.5,11113222
BP,ioos:station:wmo:42369:2,2023-01-28T22:39:00Z,27.2090,-90.2910,445.2,9.5,11113222
BP,ioos:station:wmo:42369:2,2023-01-28T22:59:00Z,27.2091,-90.2909,445.0,9.4,11113222
BP,ioos:station:wmo:42369:2,2023-01-28T23:19:00Z,27.2092,-90.2909,444.6,9.4,11113222
BP,ioos:station:wmo:42369:2,2023-01-28T23:39:00Z,27.2092,-90.2909,444.9,9.4,11113222
BP,ioos:station:wmo:42369:2,2023-01-28T23:59:00Z,27.2093,-90.2909,445.4,9.5,11113222
BP,ioos:station:wmo:42369:2,2023-01-29T00:19:00Z,27.2093,-90.2909,445.1,9.4,11113222
BP,ioos:station:wmo:42369:2,2023-01-29T00:39:00Z,27.2094,-90.2908,445.2,9.4,11113222
BP,ioos:station:wmo:42369:2,2023-01-29T00:59:00Z,27.2094,-90.2908,445.0,9.4,11113222
BP,ioos:station:wmo:42369:2,2023-01-29T01:19:00Z,27.2095,-90.2907,445.5,9.4,11113222
BP,ioos:station:wmo:42369:2,2023-01-29T01:39:00Z,27.2095,-90.2906,444.7,9.5,11113222
BP,ioos:station:wmo:42369:2,2023-01-29T01:59:00Z,27.2096,-90.2906,444.3,9.4,11113222
BP,ioos:station:wmo:42369:2,2023-01-29T02:19:00Z,27.2096,-90.2906,444.0,9.5,11113222
BP,ioos:station:wmo:42369:2,2023-01-29T02:39:00Z,27.2095,-90.2905,443.9,9.6,11113222
BP,ioos:station:wmo:42369:2,2023-01-29T02:59:00Z,27.2095,-90.2905,443.4,9.5,11113222
BP,ioos:station:wmo:42369:2,2023-01-29T03:19:00Z,27.2094,-90.2905,443.7,9.4,11113222
BP,ioos:station:wmo:42369:2,2023-01-29T03:39:00Z,27.2093,-90.2904,443.1,9.4,11113222
BP,ioos:station:wmo:42369:2,2023-01-29T03:59:00Z,27.2091,-90.2904,442.8,9.4,11113222
BP,ioos:station:wmo:42369:2,2023-01-29T04:19:00Z,27.2090,-90.2904,443.4,9.5,11113222
BP,ioos:station:wmo:42369:2,2023-01-29T04:39:00Z,27.2087,-90.2903,443.4,9.5,11113222
BP,ioos:station:wmo:42369:2,2023-01-29T05:19:00Z,27.2082,-90.2904,443.5,9.5,11113222
BP,ioos:station:wmo:42369:2,2023-01-29T05:39:00Z,27.2081,-90.2903,443.5,9.5,11113222
BP,ioos:station:wmo:42369:2,2023-01-29T05:59:00Z,27.2079,-90.2903,442.6,9.4,11113222
BP,ioos:station:wmo:42369:2,2023-01-29T06:19:00Z,27.2075,-90.2903,443.1,9.5,11113222
BP,ioos:station:wmo:42369:2,2023-01-29T06:39:00Z,27.2070,-90.2903,442.9,9.6,11113222
BP,ioos:station:wmo:42369:2,2023-01-29T07:19:00Z,27.2060,-90.2902,443.3,9.5,11113222
BP,ioos:station:wmo:42369:2,2023-01-29T07:39:00Z,27.2058,-90.2901,442.9,9.5,11113222
BP,ioos:station:wmo:42369:2,2023-01-29T08:19:00Z,27.2048,-90.2900,442.8,9.6,11113222
BP,ioos:station:wmo:42369:2,2023-01-29T08:39:00Z,27.2044,-90.2898,443.2,9.5,11113222
BP,ioos:station:wmo:42369:2,2023-01-29T08:59:00Z,27.2042,-90.2897,443.1,9.5,11113222
BP,ioos:station:wmo:42369:2,2023-01-29T09:19:00Z,27.2039,-90.2896,442.7,9.5,11113222
BP,ioos:station:wmo:42369:2,2023-01-29T09:39:00Z,27.2038,-90.2896,442.6,9.6,11113222
BP,ioos:station:wmo:42369:2,2023-01-29T09:59:00Z,27.2038,-90.2896,443.6,9.6,11113222
BP,ioos:station:wmo:42369:2,2023-01-29T10:19:00Z,27.2037,-90.2896,443.3,9.6,11113222
BP,ioos:station:wmo:42369:2,2023-01-29T10:39:00Z,27.2036,-90.2895,442.7,9.7,11113222
BP,ioos:station:wmo:42369:2,2023-01-29T10:59:00Z,27.2037,-90.2895,443.0,9.6,11113222
BP,ioos:station:wmo:42369:2,2023-01-29T11:19:00Z,27.2039,-90.2896,443.0,9.6,11113222
BP,ioos:station:wmo:42369:2,2023-01-29T11:39:00Z,27.2040,-90.2897,442.8,9.6,11113222
BP,ioos:station:wmo:42369:2,2023-01-29T12:19:00Z,27.2043,-90.2898,442.3,9.7,11113222
BP,ioos:station:wmo:42369:2,2023-01-29T12:39:00Z,27.2045,-90.2899,443.0,9.6,11113222
BP,ioos:station:wmo:42369:2,2023-01-29T12:59:00Z,27.2045,-90.2900,442.7,9.7,11113222
BP,ioos:station:wmo:42369:2,2023-01-29T13:19:00Z,27.2045,-90.2901,443.0,9.6,11113222
BP,ioos:station:wmo:42369:2,2023-01-29T13:39:00Z,27.2047,-90.2902,443.4,9.6,11113222
BP,ioos:station:wmo:42369:2,2023-01-29T13:59:00Z,27.2048,-90.2903,443.5,9.5,11113222
BP,ioos:station:wmo:42369:2,2023-01-29T14:19:00Z,27.2049,-90.2903,443.7,9.6,11113222
BP,ioos:station:wmo:42369:2,2023-01-29T14:39:00Z,27.2050,-90.2904,443.1,9.6,11113222
BP,ioos:station:wmo:42369:2,2023-01-29T14:59:00Z,27.2052,-90.2905,443.5,9.5,11113222
BP,ioos:station:wmo:42369:2,2023-01-29T15:19:00Z,27.2054,-90.2905,443.9,9.5,11113222
BP,ioos:station:wmo:42369:2,2023-01-29T15:39:00Z,27.2055,-90.2905,443.6,9.5,11113222
BP,ioos:station:wmo:42369:2,2023-01-29T15:59:00Z,27.2055,-90.2905,444.1,9.5,11113222
BP,ioos:station:wmo:42369:2,2023-01-29T16:19:00Z,27.2053,-90.2903,443.3,9.6,11113222
BP,ioos:station:wmo:42369:2,2023-01-29T16:39:00Z,27.2053,-90.2903,442.8,9.6,11113222
BP,ioos:station:wmo:42369:2,2023-01-29T16:59:00Z,27.2053,-90.2902,443.1,9.6,11113222
BP,ioos:station:wmo:42369:2,2023-01-29T17:19:00Z,27.2054,-90.2902,442.6,9.6,11113222
BP,ioos:station:wmo:42369:2,2023-01-29T17:39:00Z,27.2054,-90.2902,442.9,9.6,11113222
BP,ioos:station:wmo:42369:2,2023-01-29T17:59:00Z,27.2055,-90.2902,442.6,9.6,11113222
BP,ioos:station:wmo:42369:2,2023-01-29T18:19:00Z,27.2059,-90.2902,443.4,9.6,11113222
BP,ioos:station:wmo:42369:2,2023-01-29T20:19:00Z,27.2072,-90.2900,443.2,9.6,11113222
BP,ioos:station:wmo:42369:2,2023-01-29T20:39:00Z,27.2074,-90.2900,442.8,9.5,11113222
BP,ioos:station:wmo:42369:2,2023-01-29T20:59:00Z,27.2075,-90.2900,443.3,9.5,11113222
BP,ioos:station:wmo:42369:2,2023-01-29T21:19:00Z,27.2075,-90.2900,442.9,9.4,11113222
BP,ioos:station:wmo:42369:2,2023-01-29T21:39:00Z,27.2075,-90.2900,443.1,9.5,11113222
BP,ioos:station:wmo:42369:2,2023-01-29T21:59:00Z,27.2081,-90.2899,443.4,9.5,11113222
BP,ioos:station:wmo:42369:2,2023-01-29T22:19:00Z,27.2081,-90.2898,443.1,9.5,11113222
BP,ioos:station:wmo:42369:2,2023-01-29T22:39:00Z,27.2081,-90.2897,443.6,9.5,11113222
BP,ioos:station:wmo:42369:2,2023-01-29T22:59:00Z,27.2081,-90.2897,443.3,9.4,11113222
BP,ioos:station:wmo:42369:2,2023-01-29T23:19:00Z,27.2080,-90.2896,442.5,9.3,11113222
BP,ioos:station:wmo:42369:2,2023-01-29T23:39:00Z,27.2078,-90.2896,443.3,9.4,11113222
BP,ioos:station:wmo:42369:2,2023-01-29T23:59:00Z,27.2077,-90.2895,442.6,9.4,11113222
BP,ioos:station:wmo:42369:2,2023-01-30T00:19:00Z,27.2075,-90.2895,442.7,9.4,11113222
BP,ioos:station:wmo:42369:2,2023-01-30T00:39:00Z,27.2074,-90.2895,442.6,9.4,11113222
BP,ioos:station:wmo:42369:2,2023-01-30T00:59:00Z,27.2073,-90.2895,443.0,9.5,11113222
BP,ioos:station:wmo:42369:2,2023-01-30T01:19:00Z,27.2073,-90.2895,442.8,9.6,11113222
BP,ioos:station:wmo:42369:2,2023-01-30T01:39:00Z,27.2073,-90.2895,442.8,9.7,11113222
BP,ioos:station:wmo:42369:2,2023-01-30T01:59:00Z,27.2072,-90.2894,443.2,9.6,11113222
BP,ioos:station:wmo:42369:2,2023-01-30T03:19:00Z,27.2065,-90.2889,442.4,9.6,11113222
BP,ioos:station:wmo:42369:2,2023-01-30T03:39:00Z,27.2062,-90.2888,442.7,9.6,11113222
BP,ioos:station:wmo:42369:2,2023-01-30T03:59:00Z,27.2059,-90.2886,442.0,9.6,11113222
BP,ioos:station:wmo:42369:2,2023-01-30T04:19:00Z,27.2056,-90.2885,442.5,9.5,11113222
BP,ioos:station:wmo:42369:2,2023-01-30T04:39:00Z,27.2056,-90.2885,442.9,9.5,11113222
BP,ioos:station:wmo:42369:2,2023-01-30T04:59:00Z,27.2052,-90.2883,442.3,9.6,11113222
BP,ioos:station:wmo:42369:2,2023-01-30T05:19:00Z,27.2048,-90.2881,442.8,9.6,11113222
BP,ioos:station:wmo:42369:2,2023-01-30T05:39:00Z,27.2043,-90.2878,441.6,9.6,11113222
BP,ioos:station:wmo:42369:2,2023-01-30T05:59:00Z,27.2038,-90.2876,442.7,9.5,11113222
BP,ioos:station:wmo:42369:2,2023-01-30T06:19:00Z,27.2034,-90.2873,442.4,9.5,11113222
BP,ioos:station:wmo:42369:2,2023-01-30T06:39:00Z,27.2034,-90.2873,442.8,9.5,11113222
BP,ioos:station:wmo:42369:2,2023-01-30T06:59:00Z,27.2030,-90.2869,442.7,9.5,11113222
BP,ioos:station:wmo:42369:2,2023-01-30T07:19:00Z,27.2019,-90.2860,442.1,9.5,11113222
BP,ioos:station:wmo:42369:2,2023-01-30T07:39:00Z,27.2016,-90.2857,442.8,9.5,11113222
BP,ioos:station:wmo:42369:2,2023-01-30T08:19:00Z,27.2010,-90.2852,443.0,9.4,11113222
BP,ioos:station:wmo:42369:2,2023-01-30T08:39:00Z,27.2009,-90.2851,442.5,9.4,11113222